Location: Northcutt
(34.7304°N, 84.4305°W)
Time: 08:21:36
(UTC+00:00)

S-56A Canister/Altair - Pass Details

Date: 04 October 2022
Orbit: 638 x 2494 km, 38.9° (Epoch: 08 December)

Event Time Altitude Azimuth Distance (km) Brightness Sun altitude
Rises 02:26:17 0° 185° (S) 6,149 12.0 -38.4°
Enters shadow 02:28:10 - 180° (S) 5,821 11.8 -38.8°
Reaches altitude 10° 02:32:42 10° 167° (SSE) 5,120 - -39.6°
Maximum altitude 02:40:29 16° 135° (SE) 4,405 - -41.0°
Drops below altitude 10° 02:47:33 10° 102° (ESE) 4,619 - -42.3°
Sets 02:52:42 0° 83° (E) 5,303 - -43.2°
